TimeCEST,TemperatureF,Dew PointF,Humidity,Sea Level PressureIn,VisibilityMPH,Wind Direction,Wind SpeedMPH,Gust SpeedMPH,PrecipitationIn,Events,Conditions,WindDirDegrees,DateUTC
12:00 AM,44.6,42.8,93,29.95,-9999.0,Variable,1.2,-,N/A,,Clear,0,2013-09-19 22:00:00
1:00 AM,42.8,41.0,93,29.95,-9999.0,SSW,3.5,-,N/A,,Clear,210,2013-09-19 23:00:00
2:00 AM,42.8,41.0,93,29.95,-9999.0,Calm,Calm,-,N/A,,Clear,0,2013-09-20 00:00:00
3:00 AM,41.0,39.2,93,29.95,-9999.0,South,1.2,-,N/A,,Clear,180,2013-09-20 01:00:00
4:00 AM,41.0,39.2,93,29.95,-9999.0,SSW,2.3,-,N/A,,Clear,210,2013-09-20 02:00:00
5:00 AM,41.0,39.2,93,29.95,-9999.0,South,2.3,-,N/A,,Clear,170,2013-09-20 03:00:00
6:00 AM,42.8,41.0,93,29.98,-9999.0,SSW,4.6,-,N/A,,Clear,210,2013-09-20 04:00:00
7:00 AM,41.0,39.2,93,29.98,-9999.0,Calm,Calm,-,N/A,,Clear,0,2013-09-20 05:00:00
8:00 AM,44.6,42.8,93,29.98,-9999.0,South,3.5,-,N/A,,Clear,190,2013-09-20 06:00:00
9:00 AM,48.2,44.6,87,29.98,-9999.0,South,4.6,-,N/A,,Clear,190,2013-09-20 07:00:00
10:00 AM,50.0,46.4,87,29.98,-9999.0,South,3.5,-,N/A,,Clear,190,2013-09-20 08:00:00
11:00 AM,50.0,48.2,94,29.98,-9999.0,South,4.6,-,N/A,,Clear,190,2013-09-20 09:00:00
12:00 PM,51.8,48.2,88,29.98,-9999.0,South,3.5,-,N/A,,Clear,180,2013-09-20 10:00:00
1:00 PM,55.4,50.0,82,29.98,6.2,SSW,6.9,-,N/A,Rain,Light Rain Showers,210,2013-09-20 11:00:00
2:00 PM,55.4,48.2,77,29.98,6.2,SW,6.9,-,N/A,,Overcast,230,2013-09-20 12:00:00
3:00 PM,55.4,46.4,72,29.98,6.2,WSW,5.8,-,N/A,,Overcast,250,2013-09-20 13:00:00
4:00 PM,55.4,48.2,77,29.98,6.2,WSW,4.6,-,N/A,,Overcast,250,2013-09-20 14:00:00
5:00 PM,55.4,48.2,77,29.98,6.2,WSW,3.5,-,N/A,,Overcast,250,2013-09-20 15:00:00
6:00 PM,51.8,50.0,94,29.98,6.2,Calm,Calm,-,N/A,Rain,Light Rain,0,2013-09-20 16:00:00
7:00 PM,51.8,50.0,94,30.01,5.0,WNW,2.3,-,N/A,Rain,Light Rain,300,2013-09-20 17:00:00
8:00 PM,51.8,50.0,94,30.01,6.2,Calm,Calm,-,N/A,,Mostly Cloudy,0,2013-09-20 18:00:00
9:00 PM,51.8,50.0,94,30.04,5.0,Variable,1.2,-,N/A,,Mostly Cloudy,0,2013-09-20 19:00:00
10:00 PM,50.0,48.2,94,30.04,3.7,Variable,2.3,-,N/A,,Mostly Cloudy,0,2013-09-20 20:00:00
10:29 PM,50.0,48.2,94,30.04,2.5,Variable,2.3,-,N/A,Fog,Fog,0,2013-09-20 20:29:00
11:00 PM,50.0,48.2,94,30.04,2.5,South,2.3,-,N/A,Fog,Fog,180,2013-09-20 21:00:00